Weather reports worldwide

Advertisment
Weinbiet, Germany (10724): temperature & dewpoint: 28.05.2020 11:00:00 - 03.06.2020 11:00:00 (CEST)Weinbiet, Germany (10724): temperature 5cm & temperature -5cm: 28.05.2020 11:00:00 - 03.06.2020 11:00:00 (CEST)Weinbiet, Germany (10724): temperature -20cm & temperature -100cm: 28.05.2020 11:00:00 - 03.06.2020 11:00:00 (CEST)Weinbiet, Germany (10724): wind speed & gusts: 28.05.2020 11:00:00 - 03.06.2020 11:00:00 (CEST)Weinbiet, Germany (10724): wind direction: 28.05.2020 11:00:00 - 03.06.2020 11:00:00 (CEST)Weinbiet, Germany (10724): reduced air pressure: 28.05.2020 11:00:00 - 03.06.2020 11:00:00 (CEST)Weinbiet, Germany (10724): visibility: 28.05.2020 11:00:00 - 03.06.2020 11:00:00 (CEST)Weinbiet, Germany (10724): sunshine duration: 28.05.2020 11:00:00 - 03.06.2020 11:00:00 (CEST)Weinbiet, Germany (10724): precipitation: 28.05.2020 11:00:00 - 03.06.2020 11:00:00 (CEST)
Date & Time tt [°C] td [°C] tt 5cm [°C] tt -5cm [°C] tt -20cm [°C] tt -100cm [°C] ff [km/h] ff [kn] fx [km/h] fx [kn] dd ppp [hPa] vv [km] sd [min] rr [mm]
03.06.2020 11:00:00 23,6 10,1 30,4 24,2 20,6 17,0 5 3 11 6 SSE 1005,0 10 60 0,0
03.06.2020 10:00:00 22,9 9,2 28,0 21,0 20,5 16,9 4 2 10 5 W 1005,4 10 60 0,0
03.06.2020 09:00:00 19,6 7,8 18,7 19,7 20,6 16,9 8 4 15 8 W 1006,5 10 54 0,0
03.06.2020 08:00:00 18,6 7,1 18,3 19,2 20,8 16,9 15 8 23 12 WSW 1006,9 11 14 0,0
03.06.2020 07:00:00 18,0 6,7 17,4 19,0 21,1 16,9 20 11 26 14 WSW 1007,4 11 0 0,0
03.06.2020 06:00:00 18,4 6,2 16,6 19,1 21,4 16,8 14 7 18 10 SW 1007,6 10 0 0,0
03.06.2020 05:00:00 18,5 6,0 14,8 19,5 21,7 16,8 17 9 20 11 S 1007,9 10 0 0,0
03.06.2020 04:00:00 18,5 6,0 14,9 20,0 22,1 16,8 17 9 19 10 S 1008,8 10 0 0,0
03.06.2020 03:00:00 18,5 6,9 15,0 20,6 22,5 16,8 16 9 18 10 S 1009,5 11 0 0,0
03.06.2020 02:00:00 19,2 6,7 15,9 21,2 22,9 16,7 14 8 16 9 S 1010,1 10 0 0,0
03.06.2020 01:00:00 19,5 7,2 16,5 22,0 23,4 16,7 8 5 14 8 SE 1010,6 11 0 0,0
03.06.2020 00:00:00 19,7 7,7 16,7 22,8 23,8 16,7 13 7 19 11 E 1011,0 10 0 0,0
02.06.2020 23:00:00 19,6 7,6 16,9 23,8 24,3 16,7 14 8 22 12 NE 1011,6 10 0 0,0
02.06.2020 22:00:00 20,7 5,6 17,7 25,2 24,7 16,7 4 2 9 5 ENE 1011,6 11 0 0,0
02.06.2020 21:00:00 21,0 5,7 19,0 27,0 25,0 16,7 9 5 15 8 ESE 1011,6 10 19 0,0
02.06.2020 20:00:00 22,4 6,2 22,0 29,4 25,1 16,7 10 5 17 9 ESE 1011,8 10 59 0,0
02.06.2020 19:00:00 24,2 5,9 27,1 31,8 24,9 16,7 8 4 20 11 ESE 1011,9 10 60 0,0
02.06.2020 18:00:00 25,0 6,7 30,6 32,8 24,5 16,7 12 6 24 13 S 1012,4 10 60 0,0
02.06.2020 17:00:00 26,1 7,5 32,7 33,1 23,8 16,7 10 6 23 12 SSE 1012,6 10 60 0,0
02.06.2020 16:00:00 25,4 7,9 31,6 33,2 23,0 16,6 14 7 27 14 E 1013,4 10 60 0,0
02.06.2020 15:00:00 26,1 9,0 33,9 32,1 22,1 16,6 14 7 27 14 SSE 1014,1 10 60 0,0
02.06.2020 14:00:00 24,3 7,8 33,3 30,5 21,2 16,6 10 5 21 12 E 1015,0 10 60 0,0
02.06.2020 13:00:00 22,8 8,5 31,9 28,1 20,3 16,6 10 6 24 13 ENE 1015,9 10 60 0,0
02.06.2020 12:00:00 22,2 8,7 29,2 25,2 19,6 16,6 14 8 27 14 ENE 1016,3 10 60 0,0
02.06.2020 11:00:00 20,2 8,2 26,3 21,9 19,1 16,6 12 6 19 11 ENE 1017,1 11 60 0,0
02.06.2020 10:00:00 18,5 8,5 23,3 18,6 19,1 16,5 12 6 19 11 ENE 1017,7 10 60 0,0
02.06.2020 09:00:00 17,2 7,9 15,7 17,0 19,3 16,5 10 6 18 10 ENE 1018,0 11 60 0,0
02.06.2020 08:00:00 15,5 7,4 13,5 17,0 19,6 16,5 11 6 18 10 NNE 1018,3 11 60 0,0
02.06.2020 07:00:00 15,1 7,0 12,8 17,1 19,9 16,5 12 7 20 11 NNE 1018,3 10 53 0,0
02.06.2020 06:00:00 14,9 6,6 11,7 17,4 20,3 16,4 13 7 16 9 NNE 1018,3 10 0 0,0
02.06.2020 05:00:00 15,6 6,5 11,0 18,0 20,7 16,4 6 3 16 9 ENE 1018,3 11 0 0,0
02.06.2020 04:00:00 15,9 6,2 12,7 18,5 21,1 16,4 13 7 23 12 ENE 1018,3 11 0 0,0
02.06.2020 03:00:00 16,0 6,1 13,1 19,1 21,5 16,4 18 10 24 13 ENE 1018,5 10 0 0,0
02.06.2020 02:00:00 16,3 5,6 13,3 19,8 22,0 16,4 16 8 27 15 NE 1018,8 11 0 0,0
02.06.2020 01:00:00 17,4 6,0 13,7 20,6 22,5 16,4 17 9 29 15 NE 1018,6 10 0 0,0
02.06.2020 00:00:00 17,7 5,8 14,7 21,5 23,0 16,3 20 11 30 16 ENE 1018,4 10 0 0,0
01.06.2020 23:00:00 18,0 5,7 15,8 22,7 23,4 16,3 22 12 34 18 NE 1018,4 10 0 0,0
01.06.2020 22:00:00 18,5 6,6 16,4 24,2 23,9 16,3 22 12 39 21 NE 1018,4 10 1 0,0
01.06.2020 21:00:00 19,7 7,1 17,9 26,0 24,2 16,3 17 9 29 16 NE 1017,9 10 60 0,0
01.06.2020 20:00:00 21,3 6,1 20,9 28,4 24,3 16,3 15 8 27 15 E 1017,6 10 60 0,0
01.06.2020 19:00:00 22,5 6,1 26,4 30,9 24,1 16,3 16 9 30 16 E 1017,3 11 60 0,0
01.06.2020 18:00:00 23,0 6,3 30,1 32,1 23,6 16,3 18 10 32 17 E 1017,4 11 60 0,0
01.06.2020 17:00:00 23,7 7,2 30,1 32,6 22,9 16,3 17 9 33 18 ENE 1017,5 11 60 0,0
01.06.2020 16:00:00 23,8 6,7 31,3 32,4 22,0 16,3 21 11 35 19 ENE 1017,9 10 60 0,0
01.06.2020 15:00:00 24,7 8,1 32,3 31,3 21,1 16,3 16 9 36 20 E 1017,8 11 56 0,0
01.06.2020 14:00:00 23,9 7,0 33,9 29,5 20,1 16,3 16 9 34 19 ENE 1018,4 10 55 0,0
01.06.2020 13:00:00 21,9 8,0 30,3 27,2 19,1 16,3 22 12 37 20 ENE 1019,1 11 59 0,0
01.06.2020 12:00:00 20,3 7,9 28,5 24,1 18,3 16,3 23 12 37 20 E 1019,7 10 60 0,0
01.06.2020 11:00:00 19,4 8,0 25,8 20,6 17,9 16,3 19 10 38 21 E 1019,9 10 60 0,0
01.06.2020 10:00:00 16,7 7,9 21,5 17,1 17,8 16,3 24 13 41 22 ENE 1020,4 10 60 0,0
01.06.2020 09:00:00 15,2 7,6 13,5 15,4 18,0 16,3 18 10 30 16 E 1020,8 10 60 0,0
01.06.2020 08:00:00 13,3 7,1 11,1 15,3 18,3 16,2 20 11 32 18 ENE 1020,9 10 60 0,0
01.06.2020 07:00:00 11,8 6,2 10,0 15,4 18,6 16,2 25 14 34 19 ENE 1020,9 11 52 0,0
01.06.2020 06:00:00 11,0 5,4 9,3 15,7 18,9 16,2 25 14 34 18 ENE 1021,0 11 0 0,0
01.06.2020 05:00:00 11,4 5,2 9,4 16,2 19,3 16,2 24 13 35 19 E 1020,9 10 0 0,0
01.06.2020 04:00:00 11,4 5,0 9,4 16,7 19,7 16,2 26 14 34 18 ENE 1021,2 9 0 0,0
01.06.2020 03:00:00 11,8 5,0 9,2 17,3 20,1 16,2 24 13 34 18 E 1021,4 10 0 0,0
01.06.2020 02:00:00 12,0 4,7 10,3 17,8 20,5 16,2 23 12 33 18 E 1021,6 10 0 0,0
01.06.2020 01:00:00 12,3 4,2 10,1 18,5 21,0 16,2 21 12 35 19 ENE 1021,6 10 0 0,0
01.06.2020 00:00:00 13,1 3,8 11,3 19,4 21,5 16,2 26 14 43 23 ENE 1021,2 10 0 0,0
31.05.2020 23:00:00 13,1 3,8 11,0 20,5 21,9 16,1 23 12 39 21 ENE 1021,2 10 0 0,0
31.05.2020 22:00:00 13,7 4,7 12,2 21,9 22,4 16,1 26 14 48 26 ENE 1020,9 11 0 0,0
31.05.2020 21:00:00 15,2 5,0 14,4 23,6 22,7 16,1 26 14 43 23 NNE 1019,9 10 60 0,0
31.05.2020 20:00:00 16,7 3,8 16,6 25,8 22,8 16,1 18 10 33 18 ENE 1019,3 11 60 0,0
31.05.2020 19:00:00 17,9 3,8 22,1 28,2 22,7 16,2 15 8 35 19 ENE 1019,0 11 60 0,0
31.05.2020 18:00:00 18,3 4,4 24,2 29,0 22,4 16,2 18 10 32 17 ENE 1018,9 11 60 0,0
31.05.2020 17:00:00 17,6 3,8 21,8 30,0 21,8 16,2 19 10 34 19 E 1019,0 10 39 0,0
31.05.2020 16:00:00 18,9 2,9 28,0 30,3 20,9 16,2 19 10 36 20 E 1018,9 11 58 0,0
31.05.2020 15:00:00 19,1 3,9 28,3 29,4 20,0 16,1 16 9 37 20 ENE 1019,0 10 58 0,0
31.05.2020 14:00:00 18,2 2,7 28,8 27,4 19,1 16,1 15 8 36 20 ENE 1019,3 10 58 0,0
31.05.2020 13:00:00 15,3 3,0 22,6 24,5 18,4 16,1 21 11 40 22 NE 1020,2 10 50 0,0
31.05.2020 12:00:00 14,9 3,6 20,4 21,5 17,8 16,1 21 11 37 20 NE 1020,2 11 32 0,0
31.05.2020 11:00:00 14,1 4,3 18,7 19,3 17,5 16,1 18 10 38 21 NE 1020,5 10 49 0,0
31.05.2020 10:00:00 13,8 4,0 18,0 16,2 17,5 16,1 23 12 40 22 ENE 1020,4 9 60 0,0
31.05.2020 09:00:00 11,7 4,1 10,8 14,6 17,7 16,1 21 11 37 20 NE 1020,8 10 60 0,0
31.05.2020 08:00:00 10,2 3,6 9,0 14,6 18,0 16,1 22 12 34 19 NE 1021,0 9 60 0,0
31.05.2020 07:00:00 9,4 3,4 7,9 14,9 18,4 16,0 22 12 34 18 NE 1021,1 10 35 0,0
31.05.2020 06:00:00 9,1 2,9 7,3 15,5 18,7 16,0 22 12 36 19 NE 1021,0 10 0 0,0
31.05.2020 05:00:00 9,8 2,8 9,0 15,8 19,1 16,0 22 12 33 18 NE 1021,0 10 0 0,0
31.05.2020 04:00:00 9,4 2,7 7,5 16,2 19,5 16,0 21 11 32 18 NE 1021,0 10 0 0,0
31.05.2020 03:00:00 10,0 2,7 8,7 16,8 20,0 16,0 23 12 35 19 ENE 1021,2 10 0 0,0
31.05.2020 02:00:00 10,5 2,5 8,5 17,6 20,5 16,0 24 13 39 21 ENE 1021,4 11 0 0,0
31.05.2020 01:00:00 10,7 2,5 9,3 18,5 20,9 16,0 24 13 36 20 ENE 1021,5 10 0 0,0
31.05.2020 00:00:00 11,5 2,4 10,1 19,6 21,4 16,0 21 11 37 20 ENE 1021,5 10 0 0,0
30.05.2020 23:00:00 12,9 2,1 12,3 20,7 21,8 16,0 24 13 42 23 ENE 1021,5 10 0 0,0
30.05.2020 22:00:00 13,2 2,1 12,9 21,8 22,2 16,0 24 13 47 25 ENE 1021,2 10 0 0,0
30.05.2020 21:00:00 14,9 1,5 15,0 23,4 22,5 16,0 22 12 51 28 NE 1020,2 11 45 0,0
30.05.2020 20:00:00 16,2 2,9 17,1 25,0 22,7 16,0 23 12 44 24 NE 1019,6 10 60 0,0
30.05.2020 19:00:00 15,6 2,9 17,2 26,9 22,7 16,0 26 14 51 28 NE 1019,7 10 38 0,0
30.05.2020 18:00:00 16,8 3,2 20,7 28,9 22,4 16,0 22 12 45 24 NNE 1019,8 7 48 0,0
30.05.2020 17:00:00 18,9 2,0 23,7 30,4 21,7 16,0 16 9 49 26 ENE 1019,3 10 58 0,0
30.05.2020 16:00:00 19,0 1,5 25,8 29,9 21,0 16,0 27 14 50 27 NE 1019,5 9 58 0,0
30.05.2020 15:00:00 18,1 1,7 27,3 29,0 20,1 16,0 26 14 51 28 NE 1019,9 10 55 0,0
30.05.2020 14:00:00 18,3 0,4 26,1 27,7 19,2 15,9 21 11 50 27 NE 1020,4 10 60 0,0
30.05.2020 13:00:00 17,5 0,3 24,4 25,3 18,4 15,9 32 18 46 25 NNE 1020,9 10 56 0,0
30.05.2020 12:00:00 17,7 3,0 24,6 22,8 17,7 15,9 17 9 41 22 ENE 1021,1 10 49 0,0
30.05.2020 11:00:00 16,0 4,3 23,2 19,7 17,2 15,9 18 10 36 19 NE 1021,8 10 60 0,0
30.05.2020 10:00:00 15,7 4,4 19,8 16,1 17,1 15,9 19 10 34 18 ENE 1022,0 10 60 0,0
30.05.2020 09:00:00 13,7 4,5 11,8 14,4 17,4 15,9 18 10 29 16 ENE 1022,5 10 60 0,0
30.05.2020 08:00:00 11,7 3,5 9,7 14,3 17,7 15,9 16 8 27 15 ENE 1023,0 10 60 0,0
30.05.2020 07:00:00 10,6 3,5 8,2 14,5 18,0 15,9 18 10 28 15 NE 1023,0 11 45 0,0
30.05.2020 06:00:00 10,2 2,2 7,7 14,8 18,4 15,8 20 11 35 19 NE 1023,0 11 0 0,0
30.05.2020 05:00:00 10,5 2,0 8,1 15,3 18,8 15,8 19 10 27 15 ENE 1022,8 10 0 0,0
30.05.2020 04:00:00 11,0 2,1 8,5 15,8 19,2 15,8 18 10 29 15 NE 1022,8 10 0 0,0
30.05.2020 03:00:00 11,2 2,1 8,9 16,4 19,7 15,8 20 11 32 17 NE 1023,0 10 0 0,0
30.05.2020 02:00:00 11,3 2,3 9,1 17,1 20,1 15,8 21 12 36 19 ENE 1023,2 11 0 0,0
30.05.2020 01:00:00 12,3 2,4 10,3 17,9 20,6 15,8 26 14 42 23 ENE 1022,9 10 0 0,0
30.05.2020 00:00:00 12,9 2,8 10,8 18,8 21,1 15,8 24 13 39 21 ENE 1022,8 10 0 0,0
29.05.2020 23:00:00 13,2 2,1 11,1 19,9 21,6 15,7 26 14 39 21 ENE 1022,8 10 0 0,0
29.05.2020 22:00:00 13,9 1,9 12,2 21,3 22,1 15,7 25 13 38 20 NE 1022,7 10 0 0,0
29.05.2020 21:00:00 15,1 2,0 13,7 23,1 22,5 15,7 23 12 36 20 ENE 1022,2 11 52 0,0
29.05.2020 20:00:00 16,7 2,2 16,9 25,2 22,6 15,7 20 11 35 19 ENE 1022,1 11 43 0,0
29.05.2020 19:00:00 18,2 2,6 21,5 27,3 22,5 15,7 16 8 36 19 NE 1022,2 10 41 0,0
29.05.2020 18:00:00 17,7 2,2 21,1 28,7 22,2 15,7 19 10 35 19 ENE 1022,6 9 38 0,0
29.05.2020 17:00:00 18,9 2,8 25,9 29,3 21,7 15,7 21 11 38 21 ENE 1022,7 10 42 0,0
29.05.2020 16:00:00 19,9 3,3 24,9 29,5 21,0 15,7 16 8 40 21 E 1023,0 7 49 0,0
29.05.2020 15:00:00 17,8 2,6 24,6 28,4 20,3 15,7 26 14 38 21 NE 1024,0 10 38 0,0
29.05.2020 14:00:00 18,3 4,1 24,2 27,9 19,3 15,7 21 11 41 22 ENE 1024,4 11 42 0,0
29.05.2020 13:00:00 19,2 4,9 28,2 26,0 18,4 15,7 20 11 37 20 E 1024,8 10 57 0,0
29.05.2020 12:00:00 17,9 4,8 27,2 23,3 17,6 15,7 18 10 39 21 ENE 1025,7 9 60 0,0
29.05.2020 11:00:00 17,1 5,9 22,4 19,7 17,1 15,7 15 8 31 17 ENE 1026,1 10 60 0,0
29.05.2020 10:00:00 15,5 4,2 20,2 16,0 17,1 15,6 14 8 30 16 ENE 1026,6 11 60 0,0
29.05.2020 09:00:00 13,0 2,6 11,3 14,2 17,3 15,6 18 10 29 16 ENE 1027,3 9 60 0,0
29.05.2020 08:00:00 11,5 3,4 9,1 14,1 17,6 15,6 15 8 23 13 ENE 1027,5 11 60 0,0
29.05.2020 07:00:00 10,4 2,9 7,8 14,2 18,0 15,6 14 8 20 11 ENE 1027,8 10 49 0,0
29.05.2020 06:00:00 9,6 1,7 7,1 14,6 18,4 15,5 17 9 24 13 ENE 1028,0 10 0 0,0
29.05.2020 05:00:00 10,0 1,5 7,7 15,1 18,8 15,5 20 11 28 15 ENE 1027,9 10 0 0,0
29.05.2020 04:00:00 10,4 1,2 7,7 15,6 19,3 15,5 21 11 35 19 ENE 1028,0 11 0 0,0
29.05.2020 03:00:00 10,6 1,0 8,0 16,3 19,8 15,5 23 12 33 18 ENE 1028,2 10 0 0,0
29.05.2020 02:00:00 10,9 0,9 8,2 17,0 20,3 15,5 23 13 39 21 ENE 1028,3 11 0 0,0
29.05.2020 01:00:00 11,7 0,8 9,8 17,8 20,8 15,4 28 15 41 22 NE 1028,2 9 0 0,0
29.05.2020 00:00:00 12,2 0,8 10,1 18,8 21,4 15,4 26 14 54 29 NNE 1028,2 10 0 0,0
28.05.2020 23:00:00 13,5 0,1 12,1 19,9 21,9 15,4 32 18 53 29 NNE 1027,8 10 0 0,0
28.05.2020 22:00:00 13,9 -1,4 12,1 21,2 22,5 15,4 28 15 46 25 NE 1027,7 10 0 0,0
28.05.2020 21:00:00 14,9 -2,5 13,6 23,1 22,9 15,4 24 13 43 23 NNE 1027,3 10 60 0,0
28.05.2020 20:00:00 16,3 -2,5 15,5 25,5 23,1 15,4 26 14 40 22 NNE 1027,2 10 58 0,0
28.05.2020 19:00:00 17,5 0,1 21,3 28,5 23,0 15,4 21 11 35 19 NNE 1027,0 9 60 0,0
28.05.2020 18:00:00 17,8 1,5 23,8 30,0 22,7 15,4 18 10 40 22 N 1027,2 10 60 0,0
28.05.2020 17:00:00 18,4 2,9 24,8 30,6 22,1 15,4 18 10 42 23 NNE 1027,4 10 60 0,0
28.05.2020 16:00:00 17,7 3,5 24,9 30,5 21,4 15,3 24 13 44 24 NNE 1028,0 8 60 0,0
28.05.2020 15:00:00 18,1 4,4 25,1 29,8 20,5 15,3 29 15 53 29 NNE 1028,1 6 60 0,0
28.05.2020 14:00:00 18,2 4,9 27,2 28,3 19,6 15,3 20 11 41 22 ENE 1028,3 10 60 0,0
28.05.2020 13:00:00 17,3 6,3 25,3 25,9 18,8 15,3 18 10 38 21 NNE 1029,0 7 60 0,0
28.05.2020 12:00:00 16,2 7,7 23,6 23,0 18,2 15,3 21 11 39 21 NNE 1029,4 10 56 0,0
28.05.2020 11:00:00 14,5 7,9 20,2 20,4 17,8 15,3 21 11 36 19 NNE 1030,0 7 59 0,0

tt = temperature
td = dewpoint
tt 5cm = temperature 5cm
tt -5cm = temperature -5cm
tt -20cm = temperature -20cm
tt -100cm = temperature -100cm
ff = wind speed
fx = gusts
dd = wind direction
ppp = reduced air pressure
vv = visibility
sd = sunshine duration
rr = precipitation

Next stations